Regional Weather Roundup
Issued by NWS

Home | Current Version | Previous Version | Text Only | Print | Product List | Glossary On
Versions: 1 2 3 4 5 6 7 8 9 10 11 12 13 14 15 16 17 18 19 20 21 22 23 24 25 26 27 28 29 30 31 32 33 34 35 36 37 38 39 40 41 42 43 44 45 46 47 48 49 50
000
ASUS43 KDTX 201701
RWRMI
MICHIGAN HOURLY REGIONAL WEATHER ROUNDUP
NATIONAL WEATHER SERVICE DETROIT/PONTIAC MI
100 PM EDT SUN AUG 20 2017

NOTE: "FAIR" INDICATES FEW OR NO CLOUDS BELOW 12,000 FEET WITH NO
SIGNIFICANT WEATHER AND/OR OBSTRUCTION TO VISIBILITY.

MIZ047>049-052>055-059>063-066>070-074>076-081>083-201800-
SOUTHEAST LOWER MICHIGAN

CITY           SKY/WX    TMP DP  RH WIND       PRES   REMARKS
ADRIAN         CLOUDY    80  63  55 SW5       30.12F
ALMA           SUNNY     79  59  50 SW6       30.09F
ANN ARBOR      SUNNY     81  60  48 VRB7      30.11S
BAD AXE        SUNNY     79  61  54 SW10      30.09S
CARO           SUNNY     80  59  48 SW7       30.09S
DETROIT CITY   MOSUNNY   82  61  48 SW6       30.11S
DETROIT        MOSUNNY   82  61  48 S9        30.12S
FLINT          SUNNY     79  58  48 SW10      30.10S
GROSSE ILE     SUNNY     78  65  64 S9        30.11S
HILLSDALE      PTSUNNY   79  61  53 S8        30.12F
HOWELL         SUNNY     81  59  47 SW6       30.11S

CITY           SKY/WX    TMP DP  RH WIND       PRES   REMARKS
JACKSON        CLOUDY    80  59  48 SW9       30.10F
LAMBERTVILLE   SUNNY     80  61  51 S5        30.11F
LANSING        SUNNY     81  54  39 W8        30.10F
LAPEER         FAIR      80  54  40 SW7       30.11S
MASON          SUNNY     81  58  45 SW5       30.10F
MONROE         SUNNY     81  62  51 CALM      30.11S
MT. CLEMENS    MOSUNNY   80  65  59 S8        30.09S
PONTIAC        PTSUNNY   80  58  46 VRB5      30.10S
PORT HOPE        N/A     80  63  55 W8        30.06R
PORT HURON     SUNNY     81  59  47 S7        30.11R
TRI CITIES     SUNNY     79  64  60 SW9       30.09S
MIDLAND        FAIR      81  61  50 SW9       30.07F
TROY           SUNNY     82  56  41 SW7       30.13S
SAGINAW HB     SUNNY     79  59  50 SW8       30.08F
$$
MIZ043>046-050>051-056>058-064>065-071>073-077>080-201800-
SOUTHWEST LOWER MICHIGAN

CITY           SKY/WX    TMP DP  RH WIND       PRES   REMARKS
BATTLE CREEK   SUNNY     81  60  48 S8        30.11S
BENTON HARBOR  MOSUNNY   84  59  42 MISG      30.06F
BIG RAPIDS     CLOUDY    77  58  52 SW7       30.07F
COLDWATER      SUNNY     81  57  44 S6        30.10F
FREMONT        FAIR      80  62  53 W8        30.06F
HOLLAND        CLOUDY    80  63  55 SW8       30.08F
GRAND RAPIDS   CLOUDY    81  59  47 SW7       30.08F
IONIA          FAIR      79  56  43 SW3       30.08F
KALAMAZOO      SUNNY     83  56  39 VRB7      30.09F
LUDINGTON      MOSUNNY   76  61  60 S14       30.05F
MARSHALL       SUNNY     81  58  46 S8        30.10F
MOUNT PLEASANT SUNNY     83  57  40 SW8       30.07F
MUSKEGON       CLOUDY    80  62  54 SW14      30.07F
SOUTH HAVEN    CLOUDY    82  59  45 S7        30.07F
$$
MIZ016>042-201800-
NORTHERN LOWER MICHIGAN

CITY           SKY/WX    TMP DP  RH WIND       PRES   REMARKS
ALPENA         MOSUNNY   81  62  52 VRB6      30.02F
BEAVER ISLAND  SUNNY     76  64  65 SW14      30.01S
BELLAIRE       MOSUNNY   80  59  50 W7        30.03S
CADILLAC       CLOUDY    79  58  48 SW10      30.07F
CHARLEVOIX     SUNNY     79  63  58 SW10      30.05S
FRANKFORT      CLOUDY    76  64  67 S10       30.04F
GAYLORD        MOSUNNY   77  56  48 SW15      30.06S
GRAYLING       MOSUNNY   79  57  48 SW9       30.07S
HARBOR SPRINGS MOSUNNY   78  64  60 W5        30.01S
HOUGHTON LAKE  MOSUNNY   78  61  55 SW10      30.08R
MANISTEE       CLOUDY    79  64  60 SW9G16    30.04F
OSCODA         MOSUNNY   84  57  40 SW12      30.04S
PELLSTON       MOSUNNY   81  61  50 SW13      30.02S
ROGERS CITY    MOSUNNY   77  64  63 N5        30.02F
TRAVERSE CITY  CLOUDY    80  62  54 SW7       30.02S
$$
MIZ007>008-015-201800-
EASTERN UPPER MICHIGAN

CITY           SKY/WX    TMP DP  RH WIND       PRES   REMARKS
KINROSS        MOSUNNY   78  64  61 SW10G17   29.99F
MACKINAC ISLAN SUNNY     73  65  76 W9G17     30.00F
NEWBERRY       PTSUNNY   75  63  66 SW14G21   29.98S
S. S. MARIE    SUNNY     77  68  73 SE7       29.97F
MUNISING         N/A     80  64  58 SW8       29.93F
$$
MIZ004>006-011>014-085-201800-
CENTRAL UPPER MICHIGAN

CITY           SKY/WX    TMP DP  RH WIND       PRES   REMARKS
MANISTIQUE     SUNNY     72  66  81 S9        29.99S
ESCANABA       SUNNY     75  66  73 S13       29.98F
MENOMINEE      CLOUDY    77  65  66 SW9       30.00F
SAWYER-GWINN   MOSUNNY   75  61  60 SW14      29.96F
$$
MIZ001>003-009>011-084-201800-
WESTERN UPPER MICHIGAN

CITY           SKY/WX    TMP DP  RH WIND       PRES   REMARKS
IRON MOUNTAIN  MOSUNNY   78  60  53 SW12G23   29.96F
HOUGHTON         N/A    N/A N/A N/A MISG      29.88F
COPPER HARBOR    N/A     75  63  66 SW7       29.86F
IRONWOOD       MOSUNNY   78  65  63 S13G20    29.89S
$$

ABBREVIATIONS USED IN REMARKS
   TC - TEMPERATURE IN CELSIUS
  WCI - WIND CHILL INDEX
   HX - HEAT INDEX
  VSB - VISIBILITY




USA.gov is the U.S. government's official web portal to all federal, state and local government web resources and services.